User: anonymous   Login
Location: Unspecified
(0.0000°N, 0.0000°E)
Time: 20:00:56
(UTC+00:00)
Language:

ANNA 1B - Orbit

View from above orbital plane
View from above orbital plane
View from above satellite
View from above satellite

Ground track
Ground track

The orbit data is extracted from the following two-line orbital elements,

1   446U 62060A   19341.49982213 -.00000116  00000-0  21574-4 0  9996
2   446  50.1427 330.3498 0070168 140.6711   4.3127 13.35270710785632
Epoch (UTC): 07 December 2019 11:59:44
Eccentricity: 0.0070168
inclination: 50.1427°
perigee height: 1074 km
apogee height: 1179 km
right ascension of ascending node: 330.3498°
argument of perigee: 140.6711°
revolutions per day: 13.35270710
mean anomaly at epoch: 4.3127°
orbit number at epoch: 78563

The dashed part of the orbit path shows where the satellite is in the earth's shadow,  

DLR